User: anonymous   Login
Location: ??????
(38.0131°N, 23.7723°E)
Time: 21:41:53
(UTC+00:00)
Language:

PSLV R/B - Orbit

View from above orbital plane
View from above orbital plane
View from above satellite
View from above satellite

Ground track
Ground track

The orbit data is extracted from the following two-line orbital elements,

1 26960U 01049D   22017.30714658  .00003039  00000-0  18905-3 0  9994
2 26960  97.8221  32.3201 0051979 231.3439 128.3132 15.09323281106518
Epoch (UTC): 17 January 2022 07:22:17
Eccentricity: 0.0051979
inclination: 97.8221°
perigee height: 502 km
apogee height: 574 km
right ascension of ascending node: 32.3201°
argument of perigee: 231.3439°
revolutions per day: 15.09323281
mean anomaly at epoch: 128.3132°
orbit number at epoch: 10651

The dashed part of the orbit path shows where the satellite is in the earth's shadow,  

DLR